IRIDIUM 91 [+] (27372 NORAD) Tracking and Keplerian Element Data

This shows tracking and keplerian element data for the satellite.

Feedback or suggestion? Click here.




ElementValue
Catalog27372
NameIRIDIUM 91 [+]
Epoch Orbit86829
Epoch Day198.8841059
Epoch Year2018
RAAN121.8365
Inclination86.3984
Eccentricity0.0002148
Argument of Perigee94.2466
Mean Anonmoly265.8975
Mean Motion14.34220963
Decay Rate1.59E-06
L11 27372U 02005A 18198.88410590 .00000159 00000-0 49619-4 0 9998
L22 27372 86.3984 121.8365 0002148 94.2466 265.8975 14.34220963868292

Live tracking and technical data element details for IRIDIUM 91 [+] (NORAD 27372). IRIDIUM 91 [+] can be tracked NOW for your location showing map with azimuth and elevation plus other details from your city location.

Track the satellite on the map from your city or location and see movement details for azimuth, elevation, latitude, longitude, range, height, and movement on the map or in text.







IsCatalogInMostPopularTable: catalog: 27372, numindb: 36
Update: records affected: 1



GetName: 27372 IRIDIUM 91 [+]

Hit Count: updated at: Fri, 20 Jul 2018 06:58:36 GMT